Погода в Верхоянске

Погода в Верхоянске : погода сейчас, прогноз погоды и архив. Всё, что Вы хотите узнать о погоде в Верхоянске!

Хотите узнать прогноз погоды в Верхоянске? Тогда Вам сюда: Погода в Верхоянске

Поиск расширенной информации на нашем сайте:

Другие новости

Новости СМИ2

Главная страница сайта

Новости сайта

03.07.2017

Напоминаем, что на нашем специализированном сайте Метеоцентр.Азия вы можете получить высокодетализированные автоматические прогнозы погоды по пунктам России, СНГ и мира в авиационном формате (включающие направление и скорость ветра, видимость, явления погоды, количество и форму облачности, нижнюю и верхнюю границу облачности).


Погода в Верхоянске - сегодня

Время (UTC), дата Ветер
(°,м/с) 
Видим.   Явления Облачность Т
(°С)
Тd
(°С)
f(%) Тe
(°С)
Pmin
(гПа)
dP
(гПа)
Po
(мм)
O2
(г/м3)
Тmin Tmax R s Состояние
почвы
18 19.11.17 тихо ()   10 км  дым  3/0 верхняя 
[Ci fib]
-44.5 -47 76 -45  1024  -1.8  752  364           
21 19.11.17 200 (Ю) 20000 м    10/0 средняя 
[Ac As]
-37.8 -40.2 78 -39  1019.7  -3.6  750  353  -44.9      21  равномерный
сухой снег
100% 
00 20.11.17 210 (ЮЗ) 20000 м  слаб. снег  10/0 средняя 
[As op]
-34.3 -37.1 76 -38  1016.9  -2.3  748  347           
03 20.11.17 230 (ЮЗ) 20000 м  слаб. снег  10/0 средняя 
[As op]
-33 -36 74 -39  1012.2  -4.7  744  343           
06 20.11.17 тихо ()   10 км  слаб. снег  10/0 средняя 
[As op]
-32.2 -35.3 74 -32  1009.1  -2.9  742  341           
09 20.11.17 210 (ЮЗ) 10 км  слаб. снег  10/0 средняя 
[As op]
-31.3 -34.3 75 -32  1006.3  -2.6  740  339    -31.3  0.2     
12 20.11.17 тихо ()   10 км  слаб. снег  10/0 средняя 
[As op]
-31.1 -33.6 79 -31  1002.9  -3.4  738  337           
15 20.11.17 070 (В) 10 км  слаб. снег  10/0 средняя 
[As op]
-30.2 -32.8 78 -31  1000.8  -1.9  736  335           
18 20.11.17 070 (В) 4000 м  снег  10/0 средняя 
[As op]
-29.6 -32 80 -30  999.9  -0.9  736  334           
21 20.11.17 060 (СВ) 4000 м  снег  10/0 средняя 
[As op]
-29.1 -31.7 78 -33  999.7  -0.2  736  334  -31.4    23  равномерный
сухой снег
100% 
00 21.11.17 030 (СВ) 1000 м  сильн. снег  10/0 средняя 
[As op]
-28.9 -31.5 78 -33  1000.2  0.6  736  334           
03 21.11.17 тихо ()   1000 м  сильн. снег  10/0 средняя 
[As op]
-28 -30.6 78 -28  1000.5  0.3  736  332           
06 21.11.17 тихо ()   1000 м  сильн. снег  10/0 средняя 
[As op]
-27 -29.7 78 -27  1000.7  0.3  736  331           
09 21.11.17 050 (СВ) 1000 м  сильн. снег  10/0 средняя 
[As op]
-26.4 -29.1 78 -27  1000.6  736  330    -26.4     
12 21.11.17 040 (СВ) 1000 м  сильн. снег  10/0 средняя 
[As op]
-26.3 -28.7 80 -30  1000.6  736  330           
15 21.11.17 030 (СВ) 4000 м  снег  10/0 средняя 
[As op]
-25.5 -28 80 -29  1001.7  737  329           
18 21.11.17 040 (СВ) 4000 м  снег  10/0 средняя 
[As op]
-25.3 -27.8 80 -29  1003.3  1.6  738  330           
21 21.11.17 040 (СВ) 4000 м  снег  10/0 средняя 
[As op]
-25 -27.4 80 -26  1004.8  1.5  740  330  -26.5    29  равномерный
сухой снег
100% 
00 22.11.17 тихо ()   4000 м  снег  10/0 средняя 
[As op]
-23.5 -26 80 -24  1006.5  1.7  741  328           
03 22.11.17 340 (С) 3{11}  2000 м  снег  10/0 средняя 
[As op]
-17.3 -20.6 75 -21  1008.4  2.4  743  321           
06 22.11.17 350 (С) 2000 м  снег  10/0 средняя 
[As op]
-18.5 -21.8 75 -23  1011.1  2.5  744  323           
09 22.11.17 340 (С) 10 км  слаб. снег  10/0 средняя 
[As op]
-19 -22.6 73 -23  1013.5  2.4  746  325    -16.4     
12 22.11.17 360 (С) 10 км  слаб. снег  10/0 средняя 
[As op]
-20.1 -24.2 70 -26  1015.5  1.9  748  327           
15 22.11.17 350 (С) 20000 м  {снег}  10/0 средняя 
[As trans]
-20.9 -25 70 -27  1016.9  1.3  749  328           
18 22.11.17 010 (С) 20000 м  {снег}  10/0 средняя 
[As trans]
-21.2 -25.3 69 -24  1017.7  0.8  749  329           
Время (UTC), дата Ветер
(°,м/с) 
Видим.   Явления Облачность Т
(°С)
Тd
(°С)
f(%) Тe
(°С)
Pmin
(гПа)
dP
(гПа)
Po
(мм)
O2
(г/м3)
Тmin Tmax R s Состояние
почвы

Для получения пояснительной информации подведите курсор к названию столбца.

ПОГОДА в Верхоянске - архив

Всё, что Вы хотите узнать о погоде в Верхоянске - удобно и подробно!

Выберите нужную дату (начиная с 1 января 2015* года) и нажмите кнопку "Найти".
Будут отображены архивные сводки погоды по пункту Верхоянск, начиная с указанной даты.


Отображать данные в формате CSV (для использования в таблицах Excel)


Внимание! Наш архив погоды предназначен исключительно для личного некоммерческого использования в познавательных целях. Если Вам необходимы официальные справки о состоянии погоды (для производственных, юридических, коммерческих и т.п. целей), обращайтесь в органы Росгидромета.

*Примечание: данная дата относится к архиву по метеостанциям СССР (Россия, СНГ, Балтия).
Архив по метеостанциям Зарубежной Европы и Азии (кроме Китая) хранится 10 дней, по другим регионам земного шара (Китай, Африка, Америка, Австралия, Океания) - 1 день.

Верхоянск - район местоположения метеостанции


Название, широта, долгота, высота метеостанции:
Верхоянск 67.6°ш. 133.4°д. 137 м над ур. моря [Российская Федерация]

Дополнительная информация

В oтличие oт бoльшинства пoгoдных сайтoв мы публикуем пoдрoбную метеoинфoрмацию в детальнoм прoфессиoнальнoм фoрмате.

Характеристики температуры и влажнoсти вoздуха измеряются на высoте 2 м в тени вдали oт зданий и деревьев.
Скoрoсть ветра измеряется на высoте 10 м (на урoвне рoста челoвека скoрoсть ветра ниже в 1.5-2 раза). Если метеoстанция нахoдится в гoрoде или в лесу, тo скoрoсть ветра занижена на 2-4 м/с пo сравнению с oткрытым местoм. Скoрoсть ветра над акватoриями крупных рек и oзёр, а также на вершинах хoлмoв на 2-5 м/с выше, чем в oбычных услoвиях.
Атмoсфернoе давление в разных тoчках местнoсти мoжет значительнo oтличаться oт давления на метеoстанции, в зависимoсти oт услoвий рельефа (при пoдъёме на 10 м давление пoнижается примернo на 1 мм рт.ст.).